[[{"header":{"parameterUnit":"m.s-1","parameterCategory":1,"la1":30.2991,"la2":30.254,"lo1":-89.0895,"lo2":-89.0444,"dy":0.0017,"dx":0.0017,"nx":28,"ny":28,"refTime":"2024-07-30T09:00:00:Z","depth":0,"parameterNumber":2,"parameterNumberName":"U-component_of_WINDS"},"data":[0,0,0,0,0,0,0,0,0,0,0,0,0,0,0,0,0,0,0,0,0,0,0,0,0,0,0,0,0,0,0,0,0,0,0,0,0,0,0,0,0,0,0,0,0,0,0,0,0,0,0,0,0,0,0,0,0,0,4.9847,4.9849,0,4.9998,5.0,5.0002,4.9909,4.9905,4.99,4.9896,5.0055,5.0063,5.0071,0,0,0,0,0,0,0,0,0,0,0,0,0,4.9482,4.9489,4.9847,4.9849,4.9851,4.9998,5.0,5.0002,4.991,4.9905,4.9899,4.9894,5.0052,5.0062,5.0072,0,0,0,0,0,0,0,0,0,0,0,0,0,4.9637,4.9491,4.9847,4.9823,4.9822,4.9997,5.0,5.0003,4.9911,4.9905,4.9898,4.9892,5.0049,5.0061,5.0073,5.0282,0,0,5.0111,5.0117,0,0,0,0,0,0,0,0,4.9629,4.9651,4.9824,4.9825,4.9824,4.9928,4.9929,5.0097,4.9913,4.9878,4.9896,4.9889,5.0018,5.0033,5.0076,5.029,5.0296,5.0112,5.012,5.0125,5.0129,0,0,0,0,0,0,0,4.9618,4.9644,4.9907,4.9827,4.9827,4.9805,4.982,4.996,4.9983,4.988,4.9874,4.9893,5.0017,5.0064,5.0079,5.0299,5.0112,5.0123,5.0131,5.0136,5.0689,5.0696,0,0,0,0,0,0,4.9609,4.9636,4.9902,4.9911,4.9708,4.9817,4.9834,4.9901,4.9981,4.9987,4.9898,4.9888,5.0046,5.0064,5.0084,5.0332,5.0125,5.0137,5.0144,5.0682,5.0691,5.0699,0,0,0,0,0,0,4.9601,4.9633,4.9896,4.9772,4.9804,4.983,4.9907,4.9908,4.9955,4.9995,4.9999,4.9942,5.0041,5.0066,5.0233,5.0336,5.0143,5.0154,5.0674,5.0685,5.0695,5.0831,0,0,0,0,0,0,4.9591,4.9631,4.971,4.9774,4.9811,5.0042,4.9914,4.9916,4.9976,4.9964,5.0037,5.0043,5.0038,5.0215,5.0245,5.035,5.0164,5.0664,5.0679,5.0691,5.0817,5.0845,5.0869,0,0,0,0,0,4.9578,4.9744,4.9715,4.9748,4.991,5.0048,5.0069,5.0059,4.9985,5.0065,5.009,5.004,5.032,5.0232,5.0266,5.0376,5.0658,5.0675,5.069,5.0806,5.0839,5.0868,0,0,0,0,0,0,4.9694,4.9752,4.972,4.9912,4.9975,5.0032,5.0133,5.0096,5.0183,5.0169,5.0154,5.0171,5.0344,5.0377,5.0278,5.0581,5.0477,5.0501,5.0553,5.0586,5.0611,5.0599,5.0174,0,0,0,0,0,4.9741,4.9847,4.9893,5.0058,5.0091,5.0107,5.0167,5.0153,5.022,5.0247,5.0284,5.0351,5.0454,5.0522,5.0619,5.0822,5.0835,5.0914,5.0939,5.096,5.0981,5.1088,5.1123,5.0752,5.0752,5.0751,0,0,4.9841,4.9886,4.9954,5.0082,5.013,5.024,5.013,5.0253,5.0335,5.0266,5.0424,5.0454,5.0528,5.0713,5.0796,5.0745,5.1086,5.0981,5.0997,5.1007,5.1109,5.1144,5.1175,5.0763,5.0761,5.0759,0,0,5.0078,5.0123,5.0264,5.0314,5.0387,5.0396,5.043,5.0492,5.0509,5.0668,5.0617,5.0715,5.0893,5.0947,5.0997,5.1253,5.121,5.1286,5.142,5.1525,5.1554,5.158,5.1669,5.1702,5.1306,5.1306,5.1307,0,5.0193,5.0356,5.0341,5.0467,5.0524,5.0465,5.0607,5.0657,5.0759,5.08,5.0741,5.0961,5.1007,5.1202,5.1264,5.1308,5.1346,5.1277,5.1551,5.1577,5.1601,5.1686,5.172,5.1315,5.1314,5.1313,5.1312,0,5.0493,5.0608,5.0713,5.081,5.0879,5.1013,5.1018,5.109,5.1071,5.1086,5.1248,5.13,5.1405,5.1451,5.1435,5.1644,5.161,5.1552,5.1447,5.1645,5.1724,5.1757,5.1327,5.1324,5.1322,5.1319,0,0,5.0808,5.0893,5.0932,5.0975,5.1051,5.1139,5.127,5.1371,5.1432,5.1505,5.1613,5.1764,5.171,5.1767,5.1756,5.1849,5.2045,5.1778,5.178,5.1825,5.2278,5.232,5.2358,5.2018,5.2024,5.2029,5.2271,0,5.1048,5.1274,5.1264,5.1476,5.158,5.1525,5.1639,5.1698,5.1715,5.1807,5.1827,5.1933,5.1855,5.1889,5.1978,5.2003,5.2136,5.1985,5.2118,5.2123,5.2099,5.24,5.2445,5.2671,5.2302,5.2307,5.2311,0,5.1359,5.1439,5.1661,5.1719,5.1762,5.1865,5.1955,5.2044,5.211,5.2116,5.218,5.2153,5.2285,5.2177,5.2358,5.2256,5.2309,5.233,5.2338,5.2349,5.2228,5.2417,5.2743,5.2776,5.236,5.2357,5.2353,0,5.1563,5.1728,5.1881,5.1919,5.1991,5.2064,5.2098,5.2156,5.2217,5.2298,5.2337,5.2432,5.2484,5.2558,5.2558,5.248,5.2741,5.2633,5.2749,5.2749,5.2805,5.2802,5.3143,5.2843,5.2843,5.2842,5.2841,0,5.1832,5.197,5.1973,5.2067,5.2219,5.2206,5.2358,5.2384,5.2436,5.2535,5.2494,5.2587,5.2581,5.2676,5.2677,5.2825,5.285,5.2858,5.2856,5.2861,5.286,5.2895,5.2879,5.2851,5.2849,5.2847,5.2846,0,5.2086,5.2094,5.2257,5.2311,5.2328,5.2438,5.2484,5.2574,5.2587,5.2712,5.2741,5.2762,5.2871,5.2878,5.3005,5.3005,5.3185,5.3167,5.3162,5.3158,5.3273,5.3261,5.3648,5.3697,5.3367,5.337,5.3373,0,5.2256,5.236,5.2425,5.2487,5.2524,5.2626,5.2687,5.2678,5.2744,5.2825,5.2904,5.3009,5.3092,5.3269,5.3296,5.3392,5.3375,5.3504,5.3389,5.339,5.3374,5.3367,5.3377,5.3525,5.3529,5.3532,5.3535,0,5.2557,5.2555,5.2644,5.2735,5.2809,5.288,5.2947,5.3,5.2999,5.3075,5.3185,5.3249,5.3377,5.3481,5.3574,5.3609,5.3572,5.357,5.3602,5.3607,5.3599,5.3602,5.3221,5.3561,5.3559,5.3557,5.3555,5.3554,5.2773,5.2862,5.292,5.3021,5.3069,5.3132,5.3218,5.3241,5.3332,5.3434,5.3424,5.3545,5.3607,5.3728,5.377,5.3865,5.3821,5.3867,5.3879,5.389,5.3901,5.3585,5.3882,5.3882,5.3881,5.388,5.388,0,5.3069,5.3104,5.3196,5.3289,5.3368,5.3325,5.3396,5.3465,5.3572,5.3631,5.3713,5.3839,5.3939,5.3973,5.4071,5.414,5.4125,5.4166,5.416,5.4168,5.3936,5.3897,5.4176,5.4176,5.4176,5.4175,5.4175,5.4175,5.3233,5.338,5.3385,5.3556,5.359,5.3707,5.3751,5.3808,5.3855,5.3997,5.4079,5.41,5.415,5.425,5.434,5.4347,5.4384,5.4432,5.4432,5.4214,5.4184,5.4156,5.412,5.444,5.4441,5.4656,5.4658,5.466]},{"header":{"parameterUnit":"m.s-1","parameterCategory":1,"la1":30.2991,"la2":30.254,"lo1":-89.0895,"lo2":-89.0444,"dy":0.0017,"dx":0.0017,"nx":28,"ny":28,"refTime":"2024-07-30T09:00:00:Z","depth":0,"parameterNumber":3,"parameterNumberName":"V-component_of_WINDS"},"data":[0,0,0,0,0,0,0,0,0,0,0,0,0,0,0,0,0,0,0,0,0,0,0,0,0,0,0,0,0,0,0,0,0,0,0,0,0,0,0,0,0,0,0,0,0,0,0,0,0,0,0,0,0,0,0,0,0,0,1.2169,1.217,0,1.2244,1.2245,1.2246,1.2256,1.2255,1.2254,1.2254,1.2331,1.2334,1.2336,0,0,0,0,0,0,0,0,0,0,0,0,0,1.2033,1.2035,1.2169,1.217,1.2171,1.2244,1.2245,1.2246,1.2256,1.2255,1.2254,1.2253,1.233,1.2333,1.2337,0,0,0,0,0,0,0,0,0,0,0,0,0,1.2098,1.2036,1.2169,1.2185,1.2187,1.2244,1.2245,1.2247,1.2256,1.2255,1.2254,1.2253,1.2329,1.2333,1.2337,1.2384,0,0,1.235,1.2351,0,0,0,0,0,0,0,0,1.2095,1.2103,1.2181,1.2184,1.2186,1.224,1.2226,1.2293,1.2256,1.223,1.2254,1.2252,1.2301,1.2308,1.2324,1.2388,1.2391,1.235,1.2352,1.2354,1.2355,0,0,0,0,0,0,0,1.209,1.21,1.2199,1.2182,1.2185,1.2188,1.2196,1.2238,1.2271,1.2232,1.2233,1.2242,1.2303,1.232,1.2326,1.2392,1.235,1.2353,1.2356,1.2358,1.2496,1.2497,0,0,0,0,0,0,1.2083,1.2096,1.2196,1.2201,1.2137,1.2191,1.22,1.2224,1.227,1.2276,1.2243,1.2242,1.2314,1.2321,1.2329,1.2386,1.2354,1.2358,1.236,1.2495,1.2496,1.2498,0,0,0,0,0,0,1.208,1.2091,1.2193,1.2149,1.2162,1.2194,1.2221,1.2226,1.2243,1.2278,1.2284,1.2255,1.2313,1.2323,1.237,1.2389,1.236,1.2364,1.2494,1.2495,1.2497,1.2502,0,0,0,0,0,0,1.2076,1.209,1.2109,1.2149,1.2164,1.2234,1.2222,1.2228,1.225,1.225,1.2291,1.2297,1.2313,1.2364,1.2374,1.2394,1.2367,1.2492,1.2494,1.2497,1.25,1.2503,1.2506,0,0,0,0,0,1.2071,1.2108,1.211,1.2122,1.2188,1.2235,1.2243,1.2261,1.2252,1.2271,1.2293,1.2296,1.2385,1.2368,1.238,1.2402,1.2491,1.2494,1.2496,1.2499,1.2503,1.2506,0,0,0,0,0,0,1.2069,1.2113,1.2116,1.2167,1.2197,1.2236,1.226,1.2265,1.2298,1.2297,1.2317,1.2327,1.2372,1.2392,1.2372,1.2449,1.2437,1.2442,1.2435,1.2439,1.2442,1.2437,1.237,0,0,0,0,0,1.2075,1.2109,1.2145,1.2187,1.2201,1.2228,1.2249,1.226,1.2292,1.2305,1.233,1.2361,1.2396,1.2418,1.2453,1.2502,1.2511,1.2523,1.2526,1.2529,1.2533,1.256,1.2565,1.2507,1.2507,1.2507,0,0,1.2087,1.2115,1.2135,1.2187,1.2211,1.2246,1.2239,1.2276,1.2302,1.231,1.2356,1.2375,1.2411,1.2459,1.2482,1.2477,1.2551,1.2532,1.2534,1.2537,1.2563,1.2569,1.2573,1.2509,1.2508,1.2508,0,0,1.2126,1.2151,1.2188,1.2212,1.2249,1.2266,1.2274,1.2313,1.2326,1.2372,1.2379,1.2409,1.2469,1.2494,1.2514,1.256,1.2564,1.2571,1.2588,1.2614,1.2618,1.2622,1.2638,1.2644,1.2575,1.2575,1.2575,0,1.2136,1.2188,1.2206,1.2242,1.2265,1.2273,1.231,1.2333,1.2379,1.2394,1.2387,1.2462,1.2486,1.254,1.2551,1.2567,1.2577,1.2567,1.2616,1.2621,1.2625,1.264,1.2646,1.2576,1.2576,1.2575,1.2575,0,1.2199,1.2235,1.226,1.2304,1.2329,1.2365,1.2388,1.2411,1.2419,1.2436,1.2482,1.2512,1.2551,1.2565,1.2574,1.2619,1.2615,1.2612,1.2601,1.263,1.2645,1.2651,1.2576,1.2576,1.2576,1.2576,0,0,1.2241,1.2292,1.2301,1.232,1.2361,1.2389,1.2425,1.2463,1.2482,1.2513,1.2544,1.2593,1.2591,1.2614,1.2625,1.2648,1.2681,1.2642,1.2643,1.2648,1.2732,1.2734,1.2741,1.2684,1.2685,1.2686,1.2729,0,1.2284,1.2349,1.2365,1.2421,1.2454,1.2462,1.2493,1.2521,1.2538,1.2568,1.2587,1.2621,1.2615,1.2629,1.2652,1.2672,1.2699,1.267,1.2712,1.2713,1.2703,1.2749,1.2751,1.2791,1.2735,1.2736,1.2737,0,1.2345,1.2376,1.2435,1.2469,1.2484,1.2512,1.2547,1.2576,1.2607,1.2618,1.2643,1.2651,1.2689,1.2675,1.2726,1.2706,1.2724,1.2736,1.2738,1.2743,1.2727,1.2755,1.2804,1.281,1.2746,1.2746,1.2745,0,1.2368,1.2426,1.2468,1.2484,1.2526,1.2545,1.2563,1.2593,1.2615,1.2646,1.266,1.2695,1.2714,1.274,1.2758,1.2746,1.2807,1.2795,1.2817,1.2816,1.283,1.2829,1.2882,1.2841,1.2841,1.2841,1.2841,0,1.2416,1.2451,1.2479,1.2505,1.2544,1.2562,1.26,1.2619,1.2645,1.2674,1.2683,1.271,1.2731,1.2761,1.2775,1.2814,1.2823,1.2832,1.2836,1.2832,1.283,1.2844,1.2842,1.2843,1.2842,1.2842,1.2842,0,1.245,1.247,1.2516,1.2551,1.2561,1.2588,1.2618,1.2643,1.266,1.2696,1.2706,1.2732,1.2767,1.2787,1.2832,1.2841,1.2885,1.2887,1.2874,1.2876,1.2896,1.2894,1.2961,1.297,1.2923,1.2923,1.2923,0,1.2478,1.2506,1.2543,1.2563,1.2582,1.2614,1.2636,1.2653,1.2676,1.2712,1.2732,1.2768,1.2798,1.2854,1.2876,1.291,1.2913,1.2934,1.2918,1.2912,1.2912,1.2911,1.2913,1.2937,1.2937,1.2937,1.2938,0,1.2527,1.2536,1.2567,1.2601,1.2626,1.2654,1.2682,1.2697,1.2719,1.2744,1.278,1.2802,1.2847,1.2882,1.2917,1.2936,1.294,1.2942,1.2949,1.2945,1.2937,1.2941,1.2882,1.2941,1.294,1.294,1.294,1.294,1.256,1.2584,1.2614,1.2647,1.267,1.2695,1.272,1.2739,1.2769,1.2807,1.2815,1.2853,1.2882,1.293,1.2948,1.2978,1.2974,1.2984,1.2986,1.2988,1.2989,1.2932,1.2984,1.2984,1.2984,1.2984,1.2984,0,1.2609,1.2628,1.2659,1.2696,1.2723,1.2724,1.2754,1.2776,1.2809,1.2836,1.2864,1.2905,1.2938,1.2963,1.2997,1.3015,1.3018,1.3024,1.3023,1.3026,1.2991,1.2981,1.3021,1.3021,1.3021,1.3021,1.3021,1.3021,1.2637,1.2678,1.2689,1.2741,1.2759,1.2796,1.2813,1.2836,1.2857,1.2902,1.293,1.2945,1.2971,1.3007,1.3037,1.3043,1.3055,1.306,1.3067,1.3033,1.3029,1.3025,1.3017,1.3063,1.3063,1.31,1.3101,1.3101]}]]